User: anonymous
Location: Caltech
(34.1382°N, 118.1253°W)
Time: 07:15:42
(UTC-07:00)
Language:

COSMOS 2428 - Orbit

View from above orbital plane
View from above orbital plane
View from above satellite
View from above satellite

Ground track
Ground track

The orbit data is extracted from the following two-line orbital elements,

1 31792U 07029A   14274.12123130  .00000423  00000-0  25474-3 0   468
2 31792 070.9707 327.5901 0009747 311.8164 088.5212 14.12433560374270
Epoch (UTC): 01 October 2014 02:54:34
Eccentricity: 0.0009747
inclination: 70.9707°
perigee height: 844 km
apogee height: 858 km
right ascension of ascending node: 327.5901°
argument of perigee: 311.8164°
revolutions per day: 14.12433560
mean anomaly at epoch: 88.5212°
orbit number at epoch: 37427

The dashed part of the orbit path shows where the satellite is in the earth's shadow,  

DLR